FENGYUN 1C DEB

Satellite information

Favourite Embed

Satellite Type and Status

DEBRISIN ORBIT

Key statistics

Satellite FENGYUN 1C DEB at a glance.

Uptime

9715

Days in orbit

Revolutions

≈ 14.1

Per day

Orbit

SSO

Sun Synchronous Orbit

Inclination

98.8

Latest

Satellite identification and parameters

Extended collection of information and parameters for FENGYUN 1C DEB.

Object identification

Identified? True

Debris? True

Object name: FENGYUN 1C DEB

International designator: 1999-025CBW

Object number (NORAD): 31664

Object ID (CCSDS): 31664

Country: PEOPLES REPUBLIC OF CHINA (PRC)

Current information (Y/N): Y

RCS size: SMALL

Orbital parameters

Period: 102.106 minutes

Inclination: 98.7513 deg

SMA: 7236.491 km

Apoapsis: 948.745 km

Periapsis: 767.967 km

RAAN: 338.9393 deg

Eccentricy: 0.01249074

Argument of periapsis: 156.1303 deg

Mean anomaly: 204.5729 deg

Mean motion: 14.10297353 rev/day

Mean motion (dot): 0.00000753 rev/day2

B* drag term: 0.00041708442 1/REarth

Two-line elements (TLE)

Creation date: Dec. 14, 2025, 3:07 a.m.

Reference frame: TEME

Reference center: EARTH

Epoch: Dec. 13, 2025, 10:41 a.m. UTC

TLE line 0: 0 FENGYUN 1C DEB

TLE line 1: 1 31664U 99025CBW 25347.44546112 .00000753 00000-0 41708-3 0 9991

TLE line 2: 2 31664 98.7513 338.9393 0124907 156.1303 204.5729 14.10297353960116

Live tracking on map

Real-time ground track for satellite FENGYUN 1C DEB.

In-orbit conjunctions

A list of the most updated potential collisions computed for object FENGYUN 1C DEB.

Target Orbit TCA Probability of collision Miss distance Type
COSMOS 2251 DEB LEO 2025-08-09 09:21:57 0.0001353521 190.0 (m) DEBRIS
DIADEME 1 LEO 2025-05-27 16:40:11 0.0001658944 825.0 (m) PAYLOAD
NOAA 16 DEB SSO 2025-03-22 04:28:45 0.0001367779 273.0 (m) DEBRIS
CZ-6A DEB LEO 2025-01-11 05:42:20 0.0007943877 48.0 (m) DEBRIS

Associated space launch

Chinese polar orbiting meteorological satellite

FENGYUN 1C DEB was lifted into orbit during the mission ‘Long March 4B | Feng Yun 1C’, on board a Long March 4B space rocket.

The launch took place on May 10, 1999, 1:33 a.m. from Launch Complex 7.

For more information about the launch, click the button.

Launch to space Long March 4B | Feng Yun 1C
Long March 4B | Feng Yun 1C

Agency: N/A

Status: Launch Successful

Launch date: May 10, 1999, 1:33 a.m. UTC

Rocket: Long March 4B

Launch pad: Launch Complex 7

Location: Taiyuan Satellite Launch Center, People's Republic of China

...

Latest news about this satellite

There are no fresh news available about this satellite. Check back as we update our databases every day.


Newsletter sign-up

Weekly statistics, charts and insights to help you stay on top of the space industry.